Location: Alafon
(8.4500°N, 4.2333°E)
Time: 01:46:07
(UTC+00:00)

BREEZE-M DEB (TANK) - Pass Details

Date: 05 July 2020
Orbit: 332 x 16281 km, 49.4° (Epoch: 06 August)

Event Time Altitude Azimuth Distance (km) Brightness Sun altitude
Rises 19:45:12 0° 218° (SW) 5,647 7.6 -23.0°
Reaches altitude 10° 19:50:26 10° 217° (SW) 3,211 6.3 -24.1°
Enters shadow 19:55:14 43° 214° (SW) 897 3.3 -25.1°
